Simultaneous Nadir Overpasses (SNOs) Predictions

Prediction of SNOs between AQUA and METOP-B Satellite Orbit:

Table of predicted SNOs for the next 14.0 days since TLE Epoch: 1/31/2015
Index Date (AQUA) Time (AQUA) Lat,Lon (AQUA) SZA (AQUA ) Date (METOP-B) Time (METOP-B) Lat,Lon (METOP-B) SZA (METOP-B ) Distance(km) Time Diff (sec)
1 01/31/2015 20:59:10 73.67,-140.18 91.05 01/31/2015 20:58:23 73.69,-140.28 91.08 3.47 47
2 01/31/2015 21:48:37 -73.75, 27.29 88.88 01/31/2015 21:49:03 -73.76, 27.21 88.88 2.64 26
3 02/03/2015 16:33:26 73.74, -73.88 90.31 02/03/2015 16:32:45 73.72, -73.79 90.30 3.40 41
4 02/03/2015 17:22:52 -73.76, 93.71 89.68 02/03/2015 17:23:25 -73.79, 93.69 89.66 2.96 33
5 02/06/2015 12:07:40 73.74, -7.44 89.47 02/06/2015 12:07:07 73.74, -7.33 89.47 3.39 33
6 02/06/2015 12:57:07 -73.81, 160.05 90.47 02/06/2015 12:57:47 -73.81, 160.16 90.48 3.52 40
7 02/09/2015 07:41:52 73.73, 59.04 88.58 02/09/2015 07:41:29 73.71, 59.00 88.56 2.86 23
8 02/09/2015 08:31:19 -73.80,-133.47 91.37 02/09/2015 08:32:09 -73.78,-133.50 91.39 2.50 50
9 02/12/2015 02:26:29 -73.31, -41.24 92.79 02/12/2015 02:25:20 -73.26, -42.94 92.75 54.33 69
10 02/12/2015 03:16:04 73.71, 125.54 87.64 02/12/2015 03:15:51 73.72, 125.43 87.65 3.19 13
11 02/12/2015 04:05:31 -73.78, -66.96 92.31 02/12/2015 04:06:31 -73.79, -67.07 92.30 3.41 60
